Meteo pe oră la Abasnurskiy

Astăzi, 26 Iulie, Luni

Timp Temperatura Precipitaţii Vânt Presiune Umiditate
00:00 +14°C° 0 mm 1 m/s 752 mmHg 57%
01:00 +13°C° 0 mm 1 m/s 752 mmHg 61%
02:00 +13°C° 0 mm 1 m/s 752 mmHg 64%
03:00 +12°C° 0 mm 1 m/s 752 mmHg 68%
04:00 +13°C° 0 mm 1 m/s 753 mmHg 66%
05:00 +14°C° 0 mm 2 m/s 753 mmHg 64%
06:00 +15°C° 0 mm 2 m/s 753 mmHg 62%
07:00 +16°C° 0 mm 2 m/s 753 mmHg 58%
08:00 +17°C° 0 mm 2 m/s 753 mmHg 54%
09:00 +19°C° 0 mm 3 m/s 753 mmHg 51%
10:00 +20°C° 0 mm 3 m/s 753 mmHg 46%
11:00 +22°C° 0 mm 3 m/s 753 mmHg 42%
12:00 +24°C° 0 mm 3 m/s 753 mmHg 38%
13:00 +24°C° 0 mm 3 m/s 752 mmHg 38%
14:00 +24°C° 0 mm 3 m/s 752 mmHg 39%
15:00 +24°C° 0 mm 3 m/s 752 mmHg 40%
16:00 +22°C° 0 mm 3 m/s 752 mmHg 44%
17:00 +21°C° 0 mm 3 m/s 752 mmHg 48%
18:00 +21°C° 0 mm 3 m/s 751 mmHg 52%
19:00 +19°C° 0 mm 3 m/s 751 mmHg 55%
20:00 +18°C° 0 mm 2 m/s 751 mmHg 59%
21:00 +16°C° 0 mm 2 m/s 751 mmHg 62%
22:00 +17°C° 0 mm 3 m/s 751 mmHg 62%
23:00 +17°C° 0 mm 3 m/s 751 mmHg 62%

Mâine, 27 Iulie, Marţi

Timp Temperatura Precipitaţii Vânt Presiune Umiditate
00:00 +17°C° 0 mm 3 m/s 750 mmHg 62%
01:00 +16°C° 0 mm 3 m/s 750 mmHg 67%
02:00 +14°C° 0 mm 3 m/s 750 mmHg 72%
03:00 +14°C° 0 mm 2 m/s 750 mmHg 77%
04:00 +14°C° 0 mm 3 m/s 750 mmHg 76%
05:00 +16°C° 0 mm 3 m/s 750 mmHg 74%
06:00 +16°C° 0 mm 3 m/s 750 mmHg 73%
07:00 +17°C° 0.1 mm 3 m/s 750 mmHg 73%
08:00 +17°C° 0.1 mm 3 m/s 750 mmHg 73%
09:00 +18°C° 0.1 mm 3 m/s 750 mmHg 74%
10:00 +19°C° 0.3 mm 3 m/s 750 mmHg 68%
11:00 +20°C° 0.3 mm 4 m/s 750 mmHg 63%
12:00 +21°C° 0.3 mm 4 m/s 750 mmHg 58%
13:00 +22°C° 0 mm 4 m/s 750 mmHg 50%
14:00 +23°C° 0 mm 5 m/s 750 mmHg 43%
15:00 +23°C° 0 mm 5 m/s 749 mmHg 36%
16:00 +23°C° 0 mm 5 m/s 749 mmHg 39%
17:00 +22°C° 0 mm 4 m/s 749 mmHg 42%
18:00 +21°C° 0 mm 4 m/s 749 mmHg 45%
19:00 +19°C° 0 mm 3 m/s 749 mmHg 51%
20:00 +17°C° 0 mm 3 m/s 750 mmHg 58%
21:00 +14°C° 0 mm 2 m/s 750 mmHg 65%
22:00 +13°C° 0 mm 2 m/s 750 mmHg 67%
23:00 +12°C° 0 mm 2 m/s 750 mmHg 70%

Poimâine, 28 Iulie, Miercuri

Timp Temperatura Precipitaţii Vânt Presiune Umiditate
00:00 +12°C° 0 mm 1 m/s 750 mmHg 73%
01:00 +11°C° 0 mm 1 m/s 750 mmHg 75%
02:00 +11°C° 0 mm 1 m/s 750 mmHg 77%
03:00 +10°C° 0 mm 1 m/s 750 mmHg 79%
04:00 +12°C° 0 mm 1 m/s 750 mmHg 74%
05:00 +13°C° 0 mm 1 m/s 750 mmHg 70%
06:00 +14°C° 0 mm 1 m/s 751 mmHg 66%
07:00 +16°C° 0 mm 2 m/s 750 mmHg 59%
08:00 +18°C° 0 mm 2 m/s 750 mmHg 52%
09:00 +20°C° 0 mm 2 m/s 750 mmHg 44%
10:00 +21°C° 0 mm 2 m/s 750 mmHg 42%
11:00 +24°C° 0 mm 2 m/s 749 mmHg 40%
12:00 +25°C° 0 mm 3 m/s 749 mmHg 37%
13:00 +25°C° 0 mm 3 m/s 749 mmHg 39%
14:00 +25°C° 0 mm 4 m/s 748 mmHg 40%
15:00 +25°C° 0 mm 4 m/s 748 mmHg 42%
16:00 +23°C° 0 mm 4 m/s 748 mmHg 49%
17:00 +22°C° 0 mm 3 m/s 747 mmHg 56%
18:00 +21°C° 0 mm 2 m/s 747 mmHg 63%
19:00 +19°C° 0 mm 2 m/s 747 mmHg 70%
20:00 +18°C° 0 mm 2 m/s 746 mmHg 77%
21:00 +16°C° 0 mm 3 m/s 746 mmHg 84%
22:00 +16°C° 0 mm 2 m/s 746 mmHg 87%
23:00 +16°C° 0 mm 2 m/s 745 mmHg 90%

29 Iulie, Joi

Timp Temperatura Precipitaţii Vânt Presiune Umiditate
00:00 +15°C° 0 mm 2 m/s 745 mmHg 93%
01:00 +15°C° 0 mm 2 m/s 745 mmHg 93%
02:00 +15°C° 0 mm 2 m/s 744 mmHg 92%
03:00 +16°C° 0 mm 2 m/s 744 mmHg 92%
04:00 +16°C° 0 mm 2 m/s 744 mmHg 90%
05:00 +17°C° 0 mm 2 m/s 743 mmHg 88%
06:00 +17°C° 0 mm 2 m/s 743 mmHg 87%
07:00 +17°C° 0.4 mm 2 m/s 743 mmHg 90%
08:00 +17°C° 0.4 mm 2 m/s 742 mmHg 92%
09:00 +17°C° 0.4 mm 3 m/s 742 mmHg 95%
10:00 +17°C° 2 mm 3 m/s 742 mmHg 96%
11:00 +17°C° 2 mm 3 m/s 741 mmHg 97%
12:00 +17°C° 2 mm 3 m/s 741 mmHg 98%
13:00 +17°C° 1.4 mm 3 m/s 740 mmHg 98%
14:00 +17°C° 1.4 mm 3 m/s 740 mmHg 98%
15:00 +18°C° 1.4 mm 3 m/s 740 mmHg 98%
16:00 +18°C° 0.1 mm 2 m/s 739 mmHg 97%
17:00 +18°C° 0.1 mm 2 m/s 739 mmHg 96%
18:00 +19°C° 0.1 mm 2 m/s 739 mmHg 96%
19:00 +18°C° 0 mm 2 m/s 739 mmHg 96%
20:00 +18°C° 0 mm 1 m/s 739 mmHg 97%
21:00 +16°C° 0 mm 1 m/s 739 mmHg 97%
22:00 +16°C° 0 mm 1 m/s 739 mmHg 97%
23:00 +16°C° 0 mm 1 m/s 739 mmHg 97%

30 Iulie, Vineri

Timp Temperatura Precipitaţii Vânt Presiune Umiditate
00:00 +15°C° 0 mm 1 m/s 739 mmHg 97%
01:00 +15°C° 0 mm 1 m/s 740 mmHg 97%
02:00 +15°C° 0 mm 1 m/s 740 mmHg 97%
03:00 +15°C° 0 mm 1 m/s 740 mmHg 97%
04:00 +15°C° 0 mm 1 m/s 740 mmHg 96%
05:00 +16°C° 0 mm 1 m/s 740 mmHg 95%
06:00 +18°C° 0 mm 1 m/s 741 mmHg 94%
07:00 +18°C° 0 mm 2 m/s 741 mmHg 88%
08:00 +20°C° 0 mm 2 m/s 741 mmHg 81%
09:00 +21°C° 0 mm 2 m/s 741 mmHg 75%
10:00 +24°C° 0 mm 3 m/s 741 mmHg 68%
11:00 +26°C° 0 mm 4 m/s 741 mmHg 61%
12:00 +27°C° 0 mm 5 m/s 741 mmHg 54%
13:00 +27°C° 0.2 mm 5 m/s 741 mmHg 59%
14:00 +26°C° 0.2 mm 5 m/s 741 mmHg 64%
15:00 +25°C° 0.2 mm 5 m/s 741 mmHg 69%
16:00 +25°C° 0.1 mm 5 m/s 741 mmHg 70%
17:00 +25°C° 0.1 mm 5 m/s 741 mmHg 71%
18:00 +23°C° 0.1 mm 5 m/s 741 mmHg 72%
19:00 +22°C° 0.3 mm 4 m/s 741 mmHg 79%
20:00 +20°C° 0.3 mm 3 m/s 741 mmHg 87%
21:00 +19°C° 0.3 mm 3 m/s 742 mmHg 94%
22:00 +18°C° 0.1 mm 3 m/s 742 mmHg 95%
23:00 +18°C° 0.1 mm 3 m/s 742 mmHg 95%

31 Iulie, Sâmbătă

Timp Temperatura Precipitaţii Vânt Presiune Umiditate
00:00 +18°C° 0.1 mm 2 m/s 742 mmHg 95%
01:00 +17°C° 0 mm 2 m/s 742 mmHg 95%
02:00 +17°C° 0 mm 2 m/s 742 mmHg 94%
03:00 +16°C° 0 mm 2 m/s 743 mmHg 93%
04:00 +17°C° 0 mm 2 m/s 743 mmHg 90%
05:00 +19°C° 0 mm 1 m/s 743 mmHg 88%
06:00 +19°C° 0 mm 1 m/s 744 mmHg 85%
07:00 +21°C° 0 mm 1 m/s 744 mmHg 77%
08:00 +23°C° 0 mm 1 m/s 744 mmHg 69%
09:00 +24°C° 0 mm 1 m/s 744 mmHg 60%
10:00 +26°C° 0 mm 2 m/s 744 mmHg 55%
11:00 +27°C° 0 mm 2 m/s 744 mmHg 49%
12:00 +29°C° 0 mm 2 m/s 744 mmHg 44%
13:00 +29°C° 0 mm 3 m/s 744 mmHg 42%
14:00 +29°C° 0 mm 3 m/s 743 mmHg 41%
15:00 +30°C° 0 mm 3 m/s 743 mmHg 39%
16:00 +29°C° 0 mm 3 m/s 743 mmHg 45%
17:00 +28°C° 0 mm 2 m/s 743 mmHg 51%
18:00 +27°C° 0 mm 2 m/s 743 mmHg 57%
19:00 +25°C° 0 mm 2 m/s 743 mmHg 60%
20:00 +24°C° 0 mm 2 m/s 743 mmHg 63%
21:00 +21°C° 0 mm 2 m/s 743 mmHg 67%
22:00 +20°C° 0 mm 2 m/s 743 mmHg 68%
23:00 +20°C° 0 mm 2 m/s 743 mmHg 70%
Arată mai mult

Formular de consimțământ

Meteoprog și furnizorii noștri de servicii pot stoca și accesa date personale, precum cookies, identificatori de dispozitiv sau alte tehnologii similare pe dispozitivul dumneavoastră și procesa astfel de date pentru a personaliza conținutul și reclamele, dar și pentru a oferi caracteristici de social media și pentru a analiza traficul.

  • Stocarea și/sau accesarea informațiilor pe dispozitivul dumneavoastră

    Cookies, identificatori de dispozitiv sau alte informații pot fi stocate sau accesate pe dispozitiv în scopurile indicate mai sus.

  • Reclame și conținut personalizat, evaluarea reclamelor și a conținutului, informații despre audiențe și dezvoltarea produselor

    Reclamele și conținutul pot fi personalizate pe baza unui profil. Pot fi adăugate date suplimentare pentru a personaliza mai bine reclamele și conținutul. Performanța reclamelor și conținutului poate fi măsurată. Pot fi obținute informații despre utilizatorii care au văzut reclamele și conținutul. Aceste date pot fi utilizate pentru a dezvolta sau îmbunătăți experiența utilizatorilor, sistemele și software-ul.

Dând clic pe ‘Sunt de acord’, permiteți utilizarea cookie-urilor menționate, a identificatorilor de dispozitiv, balizelor web sau altor tehnologii similare. Setările pot fi modificate din browser-ul dispozitivului dumneavoastră.

În anumite scopuri, interesele legitime pot prima asupra consimțământului. Puteți citi mai multe informații în acest sens în Politica privind Confidențialitatea Datelor și Cookie.